{"data":{"norad_id":47971,"epoch":"2026-05-25T01:24:32.595840Z","epoch_age_seconds":67418,"freshness":"FRESH","line1":"1 47971U 21023G   26145.05871060  .00018750  00000+0  38816-3 0  9990","line2":"2 47971  44.9831  20.4275 0003725 198.4194 161.6561 15.45542168291360","mean_motion":15.45542168,"eccentricity":0.0003725,"inclination_deg":44.9831,"raan_deg":20.4275,"arg_perigee_deg":198.4194,"mean_anomaly_deg":161.6561,"bstar":0.00038816,"rev_number":29136,"period_min":93.171188066866,"perigee_km":427.24953336837,"apogee_km":432.32143561932,"semimajor_km":6807.9224844938,"source":"CELESTRAK","updated_at":"2026-05-25T13:37:56.627549Z"}}